Previsão horária em Abapo

Hoje, 30 Setembro, Quarta-feira

Tempo Temperatura Precipitação Vento Pressão Humidade
00:00 +27°C° 0 mm 3 m/s 707 mmHg 51%
01:00 +26°C° 0 mm 3 m/s 706 mmHg 53%
02:00 +26°C° 0 mm 3 m/s 706 mmHg 56%
03:00 +25°C° 0 mm 3 m/s 706 mmHg 56%
04:00 +25°C° 0 mm 2 m/s 705 mmHg 57%
05:00 +25°C° 0 mm 2 m/s 705 mmHg 57%
06:00 +27°C° 0 mm 3 m/s 706 mmHg 50%
07:00 +30°C° 0 mm 3 m/s 707 mmHg 43%
08:00 +33°C° 0 mm 4 m/s 708 mmHg 35%
09:00 +36°C° 0 mm 4 m/s 708 mmHg 30%
10:00 +40°C° 0 mm 5 m/s 708 mmHg 25%
11:00 +42°C° 0 mm 6 m/s 708 mmHg 20%
12:00 +44°C° 0 mm 7 m/s 707 mmHg 20%
13:00 +44°C° 0 mm 8 m/s 706 mmHg 19%
14:00 +45°C° 0 mm 8 m/s 705 mmHg 18%
15:00 +44°C° 0 mm 8 m/s 705 mmHg 20%
16:00 +41°C° 0 mm 8 m/s 704 mmHg 22%
17:00 +40°C° 0 mm 8 m/s 704 mmHg 24%
18:00 +38°C° 0 mm 7 m/s 704 mmHg 29%
19:00 +35°C° 0 mm 6 m/s 705 mmHg 33%
20:00 +33°C° 0 mm 5 m/s 706 mmHg 38%
21:00 +32°C° 0 mm 4 m/s 706 mmHg 41%
22:00 +30°C° 0 mm 4 m/s 706 mmHg 44%
23:00 +29°C° 0 mm 3 m/s 706 mmHg 47%

Amanhã, 1 Outubro, Quinta-feira

Tempo Temperatura Precipitação Vento Pressão Humidade
00:00 +28°C° 0 mm 3 m/s 706 mmHg 49%
01:00 +28°C° 0 mm 3 m/s 705 mmHg 51%
02:00 +27°C° 0 mm 2 m/s 705 mmHg 52%
03:00 +27°C° 0 mm 2 m/s 705 mmHg 54%
04:00 +26°C° 0 mm 2 m/s 705 mmHg 55%
05:00 +26°C° 0 mm 2 m/s 705 mmHg 56%
06:00 +28°C° 0 mm 3 m/s 706 mmHg 50%
07:00 +31°C° 0 mm 3 m/s 706 mmHg 44%
08:00 +34°C° 0 mm 3 m/s 707 mmHg 37%
09:00 +37°C° 0 mm 4 m/s 707 mmHg 32%
10:00 +40°C° 0 mm 5 m/s 707 mmHg 26%
11:00 +44°C° 0 mm 6 m/s 707 mmHg 21%
12:00 +45°C° 0 mm 7 m/s 706 mmHg 20%
13:00 +45°C° 0 mm 7 m/s 705 mmHg 19%
14:00 +45°C° 0 mm 8 m/s 704 mmHg 18%
15:00 +44°C° 0 mm 8 m/s 704 mmHg 19%
16:00 +43°C° 0 mm 8 m/s 704 mmHg 21%
17:00 +41°C° 0 mm 7 m/s 703 mmHg 22%
18:00 +39°C° 0 mm 6 m/s 704 mmHg 26%
19:00 +36°C° 0 mm 5 m/s 704 mmHg 30%
20:00 +34°C° 0 mm 4 m/s 705 mmHg 34%
21:00 +33°C° 0 mm 4 m/s 705 mmHg 37%
22:00 +31°C° 0 mm 3 m/s 706 mmHg 40%
23:00 +30°C° 0 mm 3 m/s 706 mmHg 43%

Depois de amanhã, 2 Outubro, Sexta-feira

Tempo Temperatura Precipitação Vento Pressão Humidade
00:00 +29°C° 0 mm 2 m/s 706 mmHg 45%
01:00 +28°C° 0 mm 2 m/s 705 mmHg 48%
02:00 +27°C° 0 mm 1 m/s 705 mmHg 51%
03:00 +26°C° 0 mm 1 m/s 705 mmHg 53%
04:00 +25°C° 0 mm 1 m/s 706 mmHg 54%
05:00 +25°C° 0 mm 1 m/s 706 mmHg 56%
06:00 +28°C° 0 mm 1 m/s 707 mmHg 50%
07:00 +30°C° 0 mm 1 m/s 708 mmHg 44%
08:00 +33°C° 0 mm 1 m/s 709 mmHg 37%
09:00 +36°C° 0 mm 1 m/s 709 mmHg 32%
10:00 +40°C° 0 mm 2 m/s 709 mmHg 26%
11:00 +43°C° 0 mm 2 m/s 710 mmHg 20%
12:00 +44°C° 0 mm 3 m/s 709 mmHg 19%
13:00 +45°C° 0 mm 5 m/s 708 mmHg 18%
14:00 +45°C° 0 mm 6 m/s 708 mmHg 17%
15:00 +44°C° 0 mm 6 m/s 707 mmHg 18%
16:00 +42°C° 0 mm 5 m/s 707 mmHg 19%
17:00 +42°C° 0 mm 5 m/s 707 mmHg 19%
18:00 +38°C° 0 mm 4 m/s 707 mmHg 23%
19:00 +36°C° 0 mm 3 m/s 708 mmHg 26%
20:00 +32°C° 0 mm 2 m/s 709 mmHg 29%
21:00 +31°C° 0 mm 2 m/s 709 mmHg 34%
22:00 +30°C° 0 mm 1 m/s 709 mmHg 38%
23:00 +28°C° 0 mm 1 m/s 709 mmHg 42%

3 Outubro, Sábado

Tempo Temperatura Precipitação Vento Pressão Humidade
00:00 +27°C° 0 mm 1 m/s 710 mmHg 48%
01:00 +26°C° 0 mm 1 m/s 710 mmHg 55%
02:00 +24°C° 0 mm 1 m/s 710 mmHg 62%
03:00 +24°C° 0 mm 1 m/s 710 mmHg 65%
04:00 +23°C° 0 mm 1 m/s 711 mmHg 67%
05:00 +22°C° 0 mm 1 m/s 711 mmHg 70%
06:00 +24°C° 0 mm 1 m/s 712 mmHg 62%
07:00 +26°C° 0 mm 1 m/s 713 mmHg 55%
08:00 +28°C° 0 mm 1 m/s 713 mmHg 48%
09:00 +31°C° 0 mm 1 m/s 714 mmHg 41%
10:00 +35°C° 0 mm 1 m/s 714 mmHg 34%
11:00 +39°C° 0 mm 1 m/s 714 mmHg 26%
12:00 +39°C° 0 mm 2 m/s 713 mmHg 26%
13:00 +39°C° 0 mm 3 m/s 712 mmHg 25%
14:00 +39°C° 0 mm 3 m/s 710 mmHg 24%
15:00 +40°C° 0 mm 4 m/s 710 mmHg 23%
16:00 +40°C° 0 mm 4 m/s 710 mmHg 23%
17:00 +40°C° 0 mm 4 m/s 709 mmHg 22%
18:00 +36°C° 0 mm 4 m/s 710 mmHg 28%
19:00 +33°C° 0 mm 3 m/s 710 mmHg 34%
20:00 +29°C° 0 mm 3 m/s 711 mmHg 40%
21:00 +28°C° 0 mm 2 m/s 711 mmHg 46%
22:00 +26°C° 0 mm 2 m/s 712 mmHg 52%
23:00 +24°C° 0 mm 1 m/s 712 mmHg 57%

4 Outubro, Domingo

Tempo Temperatura Precipitação Vento Pressão Humidade
00:00 +23°C° 0 mm 1 m/s 712 mmHg 61%
01:00 +22°C° 0 mm 1 m/s 712 mmHg 65%
02:00 +21°C° 0 mm 1 m/s 712 mmHg 69%
03:00 +21°C° 0 mm 1 m/s 711 mmHg 71%
04:00 +20°C° 0 mm 1 m/s 711 mmHg 73%
05:00 +19°C° 0 mm 1 m/s 711 mmHg 76%
06:00 +21°C° 0 mm 1 m/s 712 mmHg 67%
07:00 +24°C° 0 mm 1 m/s 712 mmHg 58%
08:00 +26°C° 0 mm 1 m/s 713 mmHg 49%
09:00 +28°C° 0 mm 1 m/s 712 mmHg 44%
10:00 +31°C° 0 mm 2 m/s 712 mmHg 38%
11:00 +34°C° 0 mm 3 m/s 712 mmHg 32%
12:00 +36°C° 0 mm 3 m/s 711 mmHg 29%
13:00 +38°C° 0 mm 4 m/s 710 mmHg 26%
14:00 +41°C° 0 mm 4 m/s 709 mmHg 22%
15:00 +41°C° 0 mm 5 m/s 709 mmHg 21%
16:00 +41°C° 0 mm 5 m/s 708 mmHg 20%
17:00 +42°C° 0 mm 6 m/s 708 mmHg 18%
18:00 +39°C° 0 mm 5 m/s 708 mmHg 22%
19:00 +35°C° 0 mm 4 m/s 708 mmHg 26%
20:00 +33°C° 0 mm 3 m/s 708 mmHg 30%
21:00 +30°C° 0 mm 2 m/s 708 mmHg 36%
22:00 +28°C° 0 mm 1 m/s 708 mmHg 41%
23:00 +26°C° 0 mm 1 m/s 709 mmHg 46%

5 Outubro, Segunda-feira

Tempo Temperatura Precipitação Vento Pressão Humidade
00:00 +26°C° 0 mm 1 m/s 708 mmHg 48%
01:00 +25°C° 0 mm 1 m/s 708 mmHg 51%
02:00 +24°C° 0 mm 1 m/s 708 mmHg 53%
03:00 +24°C° 0 mm 1 m/s 709 mmHg 55%
04:00 +23°C° 0 mm 1 m/s 709 mmHg 57%
05:00 +23°C° 0 mm 1 m/s 709 mmHg 59%
06:00 +24°C° 0 mm 2 m/s 710 mmHg 54%
07:00 +26°C° 0 mm 2 m/s 711 mmHg 48%
08:00 +28°C° 0 mm 2 m/s 712 mmHg 43%
09:00 +30°C° 0 mm 3 m/s 712 mmHg 38%
10:00 +34°C° 0 mm 3 m/s 713 mmHg 33%
11:00 +36°C° 0 mm 3 m/s 713 mmHg 27%
12:00 +37°C° 0 mm 3 m/s 712 mmHg 27%
13:00 +37°C° 0 mm 4 m/s 711 mmHg 26%
14:00 +37°C° 0 mm 4 m/s 710 mmHg 25%
15:00 +36°C° 0 mm 4 m/s 710 mmHg 27%
16:00 +36°C° 0 mm 4 m/s 709 mmHg 28%
17:00 +35°C° 0 mm 4 m/s 709 mmHg 29%
18:00 +31°C° 0 mm 3 m/s 709 mmHg 35%
19:00 +29°C° 0 mm 2 m/s 709 mmHg 40%
20:00 +26°C° 0 mm 2 m/s 710 mmHg 46%
21:00 +25°C° 0 mm 1 m/s 710 mmHg 49%
22:00 +24°C° 0 mm 1 m/s 710 mmHg 52%
23:00 +23°C° 0 mm 1 m/s 710 mmHg 56%
Mostrar mais